Location: ????????
(55.0559°N, 39.1270°E)
Time: 01:02:47
(UTC+00:00)

USA 59 Rocket - Pass Details

Date: 15 November 2025
Orbit: 370 x 1678 km, 63.3° (Epoch: 12 December)

Event Time Altitude Azimuth Distance (km) Brightness Sun altitude
Exits shadow 02:26:48 21° 18° (NNE) 895 1.0 -21.0°
Drops below altitude 10° 02:28:15 10° 40° (NE) 1,394 2.4 -20.7°
Sets 02:30:27 0° 52° (NE) 2,299 3.7 -20.4°
